Dewpoint
-3 -5 -8 -5 -5 -5 -6 -7 -8 -7 -7 -7 -7 -5 -6 -6 -5 -5 -5 -5 -7 -8 -7 -6 -8 -8 -9 -9 -10 -11 -12 -12 -12 -11 -13 -13 -11 -10 -10 -10 -10 -10 -10
-5 -5 -5 -5 -5 -6 -7 -7 -7 -7 -7 -6 -5 -5 -6 -6 -7 -7 -7 -8 -8 -7 -7 -8 -8 -9 -9 -11 -12 -11 -11 -11 -11 -11 -11 -9 -9 -10 -11 -10 -10 -10 -10
-6 -7 -6 -6 -6 -6 -6 -6 -7 -7 -7 -5 -6 -6 -6 -5 -5 -6 -8 -7 -6 -6 -7 -7 -7 -8 -11 -11 -11 -11 -11 -12 -11 -9 -9 -10 -11 -11 -11 -11 -11 -9 -10
-9 -9 -8 -6 -6 -6 -6 -6 -7 -7 -6 -5 -6 -6 -6 -6 -9 -9 -8 -8 -7 -7 -6 -8 -10 -11 -11 -10 -11 -11 -11 -11 -11 -11 -11 -12 -11 -11 -11 -10 -10 -9 -9
-9 -9 -8 -6 -5 -6 -6 -6 -7 -6 -6 -6 -6 -5 -4 -5 -7 -9 -7 -6 -8 -8 -9 -11 -12 -12 -13 -13 -12 -11 -11 -11 -12 -12 -11 -11 -11 -10 -11 -11 -10 -10 -10
-8 -8 -7 -6 -7 -7 -6 -6 -6 -7 -7 -7 -7 -7 -4 -5 -6 -8 -10 -10 -10 -10 -11 -11 -12 -12 -12 -12 -11 -11 -12 -11 -11 -11 -12 -11 -12 -12 -11 -10 -10 -10 -10
-8 -8 -7 -7 -8 -7 -7 -8 -8 -8 -7 -7 -8 -8 -5 -5 -6 -10 -10 -10 -9 -9 -11 -12 -12 -13 -12 -11 -11 -13 -12 -13 -12 -11 -11 -11 -10 -10 -10 -10 -10 -9 -9
-8 -8 -8 -8 -8 -9 -9 -9 -9 -8 -8 -8 -8 -8 -7 -6 -7 -9 -10 -11 -8 -9 -11 -11 -12 -12 -12 -12 -22 -12 -12 -13 -13 -13 -11 -11 -11 -12 -12 -11 -11 -11 -12
-6 -8 -8 -11 -11 -10 -10 -10 -9 -8 -8 -8 -8 -8 -9 -8 -8 -10 -10 -10 -8 -9 -10 -11 -12 -13 -12 -18 -18 -12 -12 -13 -14 -14 -13 -12 -13 -14 -13 -11 -12 -12 -11
-9 -8 -10 -11 -11 -11 -11 -10 -9 -8 -8 -8 -8 -8 -8 -9 -9 -10 -10 -9 -10 -9 -10 -11 -12 -13 -18 -28 -27 -23 -12 -12 -14 -14 -12 -12 -11 -11 -11 -11 -11 -10 -11
-9 -9 -10 -11 -10 -9 -9 -8 -7 -7 -7 -6 -6 -7 -8 -10 -8 -10 -9 -10 -12 -12 -11 -11 -11 -12 -22 -25 -25 -21 -14 -24 -18 -12 -11 -11 -11 -10 -10 -10 -10 -10 -10
-9 -9 -9 -9 -8 -7 -6 -6 -6 -7 -6 -5 -5 -6 -6 -7 -9 -9 -11 -11 -13 -14 -15 -10 -12 -17 -20 -20 -17 -15 -17 -15 -12 -13 -12 -11 -11 -11 -11 -10 -11 -10 -10
-18 -14 -8 -7 -6 -6 -6 -6 -6 -6 -6 -6 -5 -6 -6 -6 -7 -8 -10 -11 -12 -12 -14 -13 -15 -18 -16 -14 -12 -13 -13 -12 -13 -13 -13 -12 -12 -11 -11 -10 -9 -10 -10
-17 -13 -11 -11 -7 -9 -6 -6 -7 -7 -6 -6 -5 -6 -7 -9 -9 -7 -9 -10 -10 -11 -10 -10 -14 -11 -11 -11 -11 -11 -12 -12 -13 -13 -13 -12 -12 -12 -11 -11 -10 -9 -9
-16 -16 -12 -11 -6 -6 -6 -6 -5 -6 -6 -5 -6 -6 -8 -10 -8 -10 -8 -9 -9 -10 -13 -14 -10 -10 -10 -11 -11 -11 -11 -12 -12 -14 -13 -13 -12 -12 -11 -11 -11 -10 -9
-15 -13 -9 -6 -5 -5 -6 -5 -5 -6 -7 -6 -7 -7 -9 -8 -9 -12 -13 -12 -12 -12 -13 -10 -10 -11 -11 -11 -11 -11 -11 -12 -12 -13 -13 -13 -13 -12 -12 -11 -10 -10 -10
-13 -13 -11 -6 -5 -6 -6 -6 -6 -5 -5 -6 -8 -8 -8 -7 -7 -9 -13 -12 -11 -11 -11 -10 -10 -10 -11 -11 -11 -11 -11 -12 -13 -12 -13 -13 -13 -13 -12 -12 -11 -11 -10
-13 -10 -7 -5 -5 -6 -6 -6 -6 -6 -6 -6 -6 -6 -7 -7 -8 -8 -11 -11 -10 -10 -10 -10 -10 -10 -11 -10 -11 -11 -11 -12 -12 -13 -13 -13 -13 -13 -12 -12 -12 -12 -11
-8 -7 -8 -6 -5 -5 -6 -6 -6 -6 -6 -6 -6 -7 -6 -8 -8 -8 -9 -10 -10 -9 -9 -9 -9 -10 -10 -11 -11 -11 -11 -12 -13 -13 -13 -13 -13 -13 -13 -13 -13 -13 -12
-6 -5 -5 -5 -5 -6 -6 -6 -6 -6 -6 -6 -7 -8 -7 -7 -7 -8 -9 -9 -9 -10 -10 -10 -10 -10 -10 -11 -11 -11 -11 -12 -12 -13 -13 -13 -13 -14 -13 -13 -13 -13 -13
-5 -5 -4 -5 -5 -6 -7 -7 -7 -7 -7 -7 -7 -7 -6 -7 -8 -8 -8 -9 -10 -9 -10 -10 -10 -10 -11 -10 -10 -11 -11 -12 -12 -13 -13 -13 -14 -14 -13 -13 -13 -13 -13
-5 -4 -4 -4 -5 -5 -6 -6 -7 -8 -7 -8 -8 -8 -7 -7 -7 -8 -8 -8 -8 -9 -9 -9 -9 -10 -10 -10 -10 -11 -11 -11 -12 -13 -13 -14 -15 -14 -14 -13 -13 -14 -14
-6 -4 -4 -5 -5 -6 -7 -7 -6 -7 -7 -9 -8 -8 -7 -6 -7 -7 -8 -8 -8 -8 -8 -8 -10 -11 -11 -11 -10 -10 -11 -11 -12 -12 -13 -14 -14 -14 -14 -14 -14 -14 -14
-5 -5 -6 -5 -6 -7 -7 -7 -7 -7 -7 -8 -8 -8 -7 -7 -7 -7 -7 -7 -7 -8 -8 -8 -8 -8 -9 -11 -11 -11 -12 -12 -13 -14 -16 -16 -15 -14 -14 -14 -14 -14 -15
-6 -6 -5 -6 -6 -6 -7 -8 -8 -7 -8 -7 -7 -8 -7 -7 -7 -7 -7 -8 -8 -8 -8 -8 -8 -8 -8 -9 -10 -11 -11 -12 -14 -14 -16 -16 -16 -16 -16 -15 -15 -14 -14
-7 -7 -6 -6 -6 -6 -7 -9 -7 -7 -7 -7 -8 -8 -8 -9 -9 -9 -9 -9 -9 -10 -9 -8 -9 -9 -8 -9 -9 -9 -10 -10 -13 -13 -15 -16 -16 -15 -15 -15 -15 -15 -14
Wind_Speed
7 9 6 5 4 5 6 8 10 12 12 13 13 13 13 16 18 19 19 17 15 14 15 16 18 19 21 22 24 26 28 29 33 38 35 32 30 29 28 28 29 29 26
12 8 8 7 6 7 8 9 11 12 13 13 13 13 15 17 17 16 14 14 16 16 17 18 20 22 23 24 25 26 27 28 31 36 36 32 30 27 28 28 26 24 25
11 10 9 9 8 9 9 10 11 12 13 12 12 14 15 15 14 14 14 15 15 14 15 17 19 22 25 25 23 24 26 27 27 29 34 31 30 27 26 25 24 23 24
14 12 11 11 10 11 11 11 12 13 13 12 12 14 14 13 13 13 14 15 16 19 17 20 22 21 20 20 22 20 20 22 24 25 27 27 26 25 24 25 25 21 22
14 12 11 11 11 12 13 13 13 13 12 12 13 14 12 12 12 13 15 15 14 17 19 20 19 21 27 26 22 18 17 18 20 22 25 26 24 23 23 24 24 23 22
14 12 11 11 12 14 14 14 14 14 13 13 14 15 14 13 16 14 14 15 14 16 19 18 17 17 16 22 18 17 23 20 21 22 24 25 25 23 23 24 22 20 21
13 11 11 11 12 14 14 16 15 15 14 14 14 14 13 14 16 15 15 17 14 17 16 15 15 14 17 15 16 20 19 21 24 25 22 22 24 22 24 23 20 19 18
12 10 11 12 13 15 16 17 17 17 16 15 14 14 12 15 17 19 16 17 14 15 14 13 13 13 15 21 23 18 18 18 18 18 22 24 24 26 26 24 23 22 22
12 12 11 12 14 16 17 17 18 17 17 17 15 13 12 15 20 18 17 18 14 13 12 12 13 13 16 20 22 19 19 18 17 21 24 26 24 19 18 18 19 18 20
12 11 13 13 15 16 17 18 18 18 18 17 15 12 12 14 21 17 16 19 15 12 11 11 14 19 21 21 22 21 18 19 22 22 19 19 17 17 18 16 15 17 18
9 14 12 13 16 17 18 17 18 18 17 14 15 13 11 14 14 17 18 17 14 14 11 10 10 19 19 20 20 19 18 26 21 17 19 16 15 16 14 14 16 17 17
15 11 12 14 15 15 16 17 18 17 14 12 14 11 10 11 16 19 18 14 15 15 14 11 14 17 18 18 18 17 21 17 17 17 16 14 14 16 15 15 15 17 17
18 13 13 14 15 15 16 14 14 13 12 11 11 12 9 11 14 16 17 16 15 13 13 13 16 16 16 16 14 18 19 15 16 16 15 14 15 17 17 19 22 14 13
15 14 15 16 16 21 13 11 14 13 12 12 12 11 10 9 11 14 16 14 14 16 12 15 19 13 15 17 16 13 14 15 16 15 16 15 14 15 16 16 17 18 13
17 16 15 16 14 14 14 13 14 13 14 14 14 13 13 17 11 15 16 14 13 14 18 18 11 12 12 12 12 13 13 13 14 15 13 15 15 14 15 15 16 17 23
15 14 14 14 14 14 15 17 15 15 16 21 21 22 22 20 18 16 15 16 15 16 17 12 12 13 13 12 12 13 13 13 14 13 12 13 14 14 14 14 15 14 17
15 16 16 15 14 16 20 21 20 13 16 18 19 22 24 24 22 18 15 15 16 17 16 12 13 14 14 12 11 12 13 13 16 12 13 12 12 13 13 13 13 13 12
17 16 18 16 16 20 21 22 22 21 20 20 20 20 21 21 20 19 16 16 18 17 16 15 15 14 14 12 12 12 14 14 11 11 10 11 11 11 11 11 12 12 12
17 19 20 20 22 24 23 23 24 23 23 22 20 23 22 19 17 17 18 21 19 19 17 17 16 16 16 15 15 16 15 13 13 11 10 10 10 10 10 9 10 12 11
21 22 23 23 23 23 22 20 22 24 23 23 22 20 16 18 20 21 20 21 20 21 21 20 19 19 18 18 18 16 14 12 12 12 10 10 9 9 9 11 8 9 10
23 25 26 27 27 26 25 27 25 24 26 27 27 27 26 24 24 22 22 22 22 22 23 23 22 23 21 22 21 18 15 13 12 12 10 8 10 7 8 8 10 8 8
29 30 30 31 30 29 31 29 28 28 28 28 29 28 28 31 29 26 23 22 23 25 25 25 25 24 23 22 21 19 17 15 14 11 11 10 9 7 7 7 8 9 8
31 31 32 33 31 31 29 31 31 30 26 25 26 25 25 29 31 28 26 25 26 26 27 27 28 28 26 26 26 25 21 18 15 13 11 10 8 7 8 6 7 7 7
33 32 33 32 31 27 29 31 32 31 28 25 24 23 23 24 26 27 25 25 27 28 27 28 31 30 29 27 27 25 22 19 18 16 12 12 10 8 7 6 6 8 7
34 36 40 35 35 39 26 27 27 25 24 23 21 19 18 18 19 20 20 22 24 26 26 26 27 29 34 31 29 27 23 21 18 17 15 12 11 10 9 7 7 6 6
33 34 35 35 38 27 20 22 22 23 19 15 16 17 18 20 22 24 25 26 25 26 25 25 26 26 27 30 31 28 26 25 21 18 16 14 12 10 8 7 7 6 4
Wind_Direction
186 175 253 201 232 283 311 318 318 315 315 311 307 300 292 289 290 293 291 283 279 284 282 294 305 307 304 300 298 296 294 294 295 298 298 301 302 302 299 297 296 294 292
187 254 200 208 240 281 297 307 309 311 309 306 300 299 299 295 292 292 283 279 284 288 294 301 305 304 303 302 298 296 296 295 297 299 298 301 301 303 301 299 297 292 289
209 199 210 228 254 274 285 294 302 305 305 302 301 301 299 292 291 287 283 281 291 300 298 299 304 304 302 300 297 295 294 294 295 294 297 301 303 303 303 300 297 297 289
201 212 228 237 258 267 274 287 296 300 298 297 296 296 296 294 290 289 291 291 294 292 300 306 304 303 298 292 300 299 299 297 297 295 297 300 302 304 302 302 303 301 302
208 220 234 246 260 268 271 283 287 295 298 296 295 289 282 283 280 282 294 298 299 300 302 303 303 294 296 301 314 306 305 304 300 299 298 300 303 302 303 301 301 297 297
213 222 235 249 263 270 274 282 287 295 298 297 297 295 288 282 265 300 308 300 307 303 304 301 302 304 299 305 318 310 311 306 303 302 300 298 300 300 299 296 300 304 304
218 233 249 261 271 273 278 282 282 289 295 296 297 295 282 280 274 296 295 298 304 305 302 301 303 305 309 301 299 304 306 304 300 293 292 296 296 301 306 304 294 296 297
222 243 261 273 279 281 280 283 283 284 292 293 292 285 283 269 271 286 288 305 303 302 300 300 304 305 304 302 311 314 311 308 305 296 292 295 294 293 290 290 293 293 291
265 255 270 282 284 285 284 286 285 282 288 290 287 281 277 273 273 279 296 306 304 301 300 302 291 305 291 316 321 317 314 313 307 298 300 297 300 300 295 290 287 282 281
243 269 287 293 291 290 290 289 285 279 282 283 274 266 266 254 265 282 296 307 303 302 303 300 306 305 315 316 319 321 315 314 311 312 310 310 309 302 300 284 278 275 277
249 288 292 294 294 291 292 291 285 279 277 272 260 263 260 271 262 281 295 304 302 302 302 303 298 292 314 321 319 318 309 317 322 324 314 313 314 312 307 295 281 275 268
288 286 290 288 290 293 294 294 289 282 271 263 255 259 262 267 279 292 302 292 299 305 306 299 299 311 315 318 321 321 325 335 329 317 317 318 318 317 312 302 289 280 272
286 290 293 294 297 296 294 293 283 271 262 258 252 267 265 273 281 280 297 300 298 308 311 310 313 317 324 332 322 330 345 328 322 324 320 317 319 322 325 322 333 284 266
289 296 297 301 296 305 297 286 278 270 261 254 253 249 265 275 283 273 282 293 301 311 320 303 310 329 333 330 331 323 317 318 322 324 316 316 322 325 327 326 331 341 273
298 302 296 299 297 298 296 293 261 260 258 256 249 248 262 271 288 265 256 266 273 278 292 301 315 306 311 313 316 316 320 318 323 318 327 322 323 324 326 333 333 329 343
301 301 300 293 293 288 294 291 288 280 261 253 248 250 269 283 294 303 273 266 272 282 291 291 294 300 303 309 312 316 317 318 313 323 327 327 322 324 326 336 334 334 348
300 298 300 297 295 288 285 289 289 287 274 268 263 264 270 280 285 295 287 274 275 278 283 282 284 290 294 300 305 311 313 310 316 321 321 326 326 328 333 334 335 339 337
300 305 304 296 290 281 279 286 287 280 273 279 278 274 274 274 280 281 278 273 269 270 273 268 273 282 290 290 294 297 299 302 310 308 320 321 327 330 334 330 331 333 335
292 291 290 285 276 278 278 280 281 282 277 273 270 267 267 277 280 277 267 264 260 256 255 266 270 274 280 284 283 288 295 302 308 318 315 316 319 324 329 327 331 330 337
287 290 286 283 285 292 295 289 275 275 278 274 274 274 257 265 269 278 272 270 266 263 264 261 258 260 262 271 275 282 288 298 305 302 298 306 310 315 322 324 329 331 330
280 281 276 283 282 291 293 292 294 284 278 277 274 275 263 258 262 267 270 272 270 267 267 267 267 267 271 273 277 271 273 276 283 287 287 292 299 312 313 319 322 325 326
275 275 273 271 276 282 290 289 291 287 284 284 282 278 273 261 262 265 262 267 269 269 268 268 268 267 266 267 271 271 271 268 275 279 277 282 297 295 299 309 318 320 329
287 279 275 280 283 286 285 288 289 286 285 286 282 283 278 264 262 263 271 274 277 278 273 263 261 261 261 261 265 267 264 263 268 273 274 275 277 278 279 287 299 316 314
295 286 281 276 285 284 285 290 291 285 283 284 285 283 278 272 271 266 277 281 283 285 283 280 272 264 259 262 261 263 264 261 263 273 274 274 272 270 280 277 282 288 316
286 288 282 270 284 284 275 288 284 282 286 282 280 282 284 280 280 280 280 280 280 281 282 281 281 281 273 262 258 264 265 263 263 269 276 270 263 262 266 262 261 263 285
296 291 285 284 281 266 271 296 291 276 277 273 280 283 284 284 282 281 281 281 281 279 277 277 276 274 278 276 263 254 256 258 256 259 263 265 258 253 255 258 264 266 259
Height
1539 1540 1541 1541 1543 1543 1541 1539 1537 1534 1532 1530 1528 1526 1525 1523 1521 1519 1517 1515 1514 1513 1512 1510 1508 1506 1504 1501 1498 1495 1491 1487 1479 1472 1472 1469 1466 1462 1459 1455 1451 1447 1443
1536 1536 1536 1538 1539 1538 1536 1535 1532 1530 1528 1525 1523 1522 1521 1518 1517 1514 1513 1511 1511 1509 1508 1506 1504 1502 1500 1496 1493 1489 1485 1482 1477 1468 1465 1463 1460 1457 1453 1449 1445 1442 1438
1531 1532 1534 1535 1535 1533 1532 1530 1528 1525 1523 1521 1520 1518 1516 1514 1513 1511 1510 1508 1506 1505 1504 1502 1499 1497 1494 1491 1487 1484 1480 1476 1472 1466 1459 1458 1454 1451 1447 1444 1441 1437 1434
1528 1529 1531 1531 1530 1528 1527 1525 1523 1520 1518 1516 1514 1513 1511 1510 1510 1508 1507 1505 1504 1502 1500 1498 1495 1491 1488 1483 1480 1477 1474 1470 1466 1462 1457 1453 1450 1446 1443 1439 1435 1433 1429
1525 1525 1526 1525 1524 1524 1522 1520 1518 1515 1513 1512 1510 1508 1506 1505 1504 1503 1503 1502 1500 1498 1496 1493 1490 1486 1482 1477 1474 1471 1469 1465 1462 1458 1453 1450 1446 1443 1440 1436 1432 1428 1425
1520 1520 1520 1520 1520 1519 1517 1516 1514 1512 1510 1508 1506 1504 1502 1501 1497 1498 1497 1497 1496 1494 1491 1488 1485 1482 1479 1474 1470 1466 1464 1460 1458 1454 1450 1446 1443 1440 1436 1433 1429 1427 1423
1516 1517 1517 1515 1514 1513 1512 1511 1509 1507 1505 1503 1501 1500 1498 1496 1493 1494 1493 1492 1491 1490 1487 1483 1480 1478 1474 1471 1467 1463 1459 1457 1453 1449 1445 1442 1438 1436 1433 1428 1426 1424 1421
1511 1511 1512 1511 1510 1509 1508 1506 1505 1504 1501 1499 1496 1495 1494 1490 1490 1490 1489 1488 1487 1485 1482 1478 1476 1473 1469 1464 1460 1457 1454 1452 1449 1445 1441 1437 1434 1431 1428 1426 1423 1421 1418
1509 1510 1509 1507 1505 1505 1503 1501 1500 1498 1497 1495 1493 1491 1490 1487 1486 1485 1484 1483 1482 1479 1477 1474 1471 1468 1464 1461 1456 1452 1449 1447 1444 1440 1436 1431 1428 1425 1423 1421 1419 1418 1415
1505 1507 1506 1505 1503 1501 1499 1496 1494 1492 1490 1489 1488 1486 1484 1483 1481 1481 1480 1478 1476 1475 1473 1471 1467 1463 1460 1456 1452 1448 1445 1443 1437 1432 1430 1426 1423 1421 1418 1416 1415 1414 1412
1498 1500 1501 1500 1499 1495 1493 1491 1489 1486 1484 1482 1483 1482 1479 1478 1476 1475 1475 1474 1472 1470 1468 1467 1465 1460 1457 1453 1449 1445 1442 1437 1432 1430 1427 1423 1421 1418 1415 1413 1411 1410 1408
1497 1494 1495 1494 1492 1489 1486 1484 1485 1484 1481 1479 1477 1477 1476 1474 1473 1471 1470 1469 1468 1466 1464 1462 1459 1456 1453 1450 1446 1443 1440 1435 1433 1429 1425 1422 1419 1416 1413 1410 1407 1405 1404
1493 1490 1490 1489 1487 1484 1481 1478 1478 1478 1477 1475 1474 1473 1473 1471 1468 1466 1466 1465 1463 1462 1460 1457 1455 1452 1449 1446 1445 1441 1437 1435 1431 1427 1423 1420 1417 1414 1410 1407 1403 1400 1399
1489 1486 1484 1483 1482 1478 1476 1475 1475 1473 1472 1472 1471 1470 1469 1469 1468 1464 1461 1460 1460 1458 1457 1455 1452 1450 1447 1445 1442 1441 1437 1434 1430 1426 1422 1419 1416 1413 1409 1405 1401 1397 1395
1483 1481 1480 1479 1477 1476 1474 1470 1470 1469 1468 1467 1466 1466 1465 1463 1462 1460 1459 1458 1458 1456 1453 1451 1450 1448 1446 1444 1442 1439 1436 1432 1429 1425 1421 1417 1414 1411 1408 1405 1401 1397 1393
1478 1477 1476 1475 1474 1472 1469 1467 1464 1461 1461 1461 1461 1460 1459 1457 1456 1454 1453 1453 1452 1451 1449 1448 1447 1445 1443 1441 1439 1437 1434 1431 1427 1422 1420 1417 1413 1410 1407 1404 1401 1398 1394
1475 1473 1471 1470 1469 1469 1466 1463 1459 1457 1455 1454 1454 1454 1453 1452 1450 1449 1448 1447 1447 1446 1444 1444 1443 1442 1440 1438 1437 1434 1431 1428 1424 1422 1419 1416 1413 1410 1407 1404 1402 1399 1396
1470 1468 1467 1466 1464 1463 1461 1457 1455 1453 1450 1449 1448 1447 1446 1445 1444 1443 1443 1442 1441 1440 1440 1440 1439 1438 1436 1435 1433 1431 1428 1425 1422 1419 1416 1414 1412 1409 1407 1405 1402 1400 1397
1467 1465 1463 1461 1458 1456 1454 1452 1449 1446 1444 1442 1442 1440 1439 1439 1438 1437 1437 1436 1436 1435 1435 1435 1434 1433 1432 1430 1429 1426 1424 1421 1419 1416 1415 1413 1410 1408 1406 1404 1402 1400 1397
1462 1460 1457 1454 1452 1449 1447 1445 1442 1440 1437 1435 1434 1433 1434 1432 1431 1430 1430 1429 1429 1429 1429 1428 1428 1427 1427 1425 1424 1422 1420 1418 1416 1415 1413 1410 1408 1407 1405 1403 1401 1399 1398
1457 1454 1451 1448 1445 1444 1441 1439 1436 1434 1431 1429 1427 1426 1426 1425 1425 1424 1424 1423 1422 1422 1422 1421 1421 1420 1420 1419 1418 1417 1416 1414 1413 1411 1409 1408 1405 1404 1404 1402 1400 1398 1397
1449 1446 1443 1440 1438 1436 1433 1430 1428 1425 1423 1421 1419 1418 1417 1415 1415 1415 1415 1415 1415 1414 1414 1414 1413 1413 1413 1413 1412 1411 1411 1410 1408 1407 1405 1404 1402 1402 1401 1400 1399 1397 1395
1440 1437 1434 1431 1429 1427 1424 1422 1419 1417 1415 1413 1411 1409 1408 1406 1406 1406 1406 1407 1406 1406 1405 1405 1404 1404 1405 1405 1405 1405 1404 1404 1403 1402 1401 1400 1399 1399 1398 1398 1397 1396 1394
1431 1428 1425 1422 1419 1417 1415 1413 1410 1408 1406 1405 1403 1402 1400 1399 1398 1399 1399 1399 1398 1397 1397 1396 1395 1395 1395 1396 1397 1397 1398 1398 1397 1397 1397 1396 1395 1396 1395 1395 1395 1394 1392
1421 1418 1414 1411 1409 1407 1405 1403 1401 1399 1398 1397 1396 1395 1394 1393 1392 1392 1392 1391 1390 1389 1388 1387 1386 1386 1386 1387 1388 1389 1391 1391 1392 1392 1391 1392 1391 1391 1391 1391 1392 1391 1391
1411 1408 1405 1402 1400 1398 1397 1395 1392 1391 1391 1391 1390 1390 1389 1388 1387 1386 1385 1384 1382 1381 1380 1379 1378 1377 1377 1378 1379 1380 1383 1384 1385 1386 1387 1386 1387 1387 1388 1388 1389 1388 1389